Location: Grange Rosano
(44.4500°N, 6.9667°E)
Time: 19:14:45
(UTC+00:00)

MOS 1 Rocket - Pass Details

Date: 26 May 2022
Orbit: 615 x 827 km, 97.5° (Epoch: 01 July)

Event Time Altitude Azimuth Distance (km) Brightness Sun altitude
Exits shadow 02:23:27 21° 220° (SW) 1,394 4.2 -13.3°
Maximum altitude 02:25:26 31° 264° (W) 1,096 3.9 -13.1°
Drops below altitude 10° 02:29:16 10° 327° (NNW) 1,993 5.9 -12.6°
Sets 02:31:41 0° 338° (NNW) 2,918 6.9 -12.3°
